TimeEDT,TemperatureF,Dew PointF,Humidity,Sea Level PressureIn,VisibilityMPH,Wind Direction,Wind SpeedMPH,Gust SpeedMPH,PrecipitationIn,Events,Conditions,WindDirDegrees,DateUTC
12:41 AM,53.6,51.8,94,29.90,5.0,Calm,Calm,-,N/A,,Clear,0,2013-06-12 04:41:00
12:58 AM,51.8,50.0,94,29.91,1.5,Calm,Calm,-,N/A,,Mist,0,2013-06-12 04:58:00
1:48 AM,51.8,50.0,94,29.90,1.8,Calm,Calm,-,N/A,,Mist,0,2013-06-12 05:48:00
1:58 AM,51.8,51.8,100,29.90,4.0,Calm,Calm,-,N/A,,Clear,0,2013-06-12 05:58:00
2:23 AM,51.8,50.0,94,29.90,7.0,Calm,Calm,-,N/A,,Clear,0,2013-06-12 06:23:00
2:48 AM,51.8,51.8,100,29.89,1.8,Calm,Calm,-,N/A,,Mist,0,2013-06-12 06:48:00
3:00 AM,51.8,50.0,94,29.90,5.0,Calm,Calm,-,N/A,,Clear,0,2013-06-12 07:00:00
3:18 AM,50.0,48.2,94,29.90,7.0,Calm,Calm,-,N/A,,Clear,0,2013-06-12 07:18:00
3:38 AM,50.0,48.2,94,29.89,7.0,Calm,Calm,-,N/A,,Clear,0,2013-06-12 07:38:00
3:58 AM,48.2,46.4,93,29.90,10.0,Calm,Calm,-,N/A,,Clear,0,2013-06-12 07:58:00
4:18 AM,48.2,44.6,87,29.89,10.0,Calm,Calm,-,N/A,,Clear,0,2013-06-12 08:18:00
4:38 AM,48.2,46.4,93,29.89,0.5,Calm,Calm,-,N/A,Fog,Fog,0,2013-06-12 08:38:00
4:58 AM,50.0,46.4,87,29.90,10.0,Calm,Calm,-,N/A,,Clear,0,2013-06-12 08:58:00
5:21 AM,50.0,46.4,87,29.90,10.0,Calm,Calm,-,N/A,,Clear,0,2013-06-12 09:21:00
5:38 AM,48.2,44.6,87,29.90,10.0,Calm,Calm,-,N/A,,Clear,0,2013-06-12 09:38:00
5:58 AM,48.2,44.6,87,29.91,10.0,Calm,Calm,-,N/A,,Clear,0,2013-06-12 09:58:00
6:55 AM,46.4,46.4,100,29.91,10.0,Calm,Calm,-,N/A,,Clear,0,2013-06-12 10:55:00
7:50 AM,53.6,51.8,94,29.91,10.0,Calm,Calm,-,N/A,,Clear,0,2013-06-12 11:50:00
8:50 AM,62.6,55.4,77,29.91,10.0,Calm,Calm,-,N/A,,Clear,0,2013-06-12 12:50:00
9:50 AM,69.8,51.8,53,29.89,10.0,Calm,Calm,-,N/A,,Clear,0,2013-06-12 13:50:00
10:55 AM,73.4,46.4,38,29.87,10.0,WSW,8.1,-,N/A,,Clear,240,2013-06-12 14:55:00
11:50 AM,75.2,46.4,36,29.87,10.0,Calm,Calm,-,N/A,,Scattered Clouds,0,2013-06-12 15:50:00
12:50 PM,77.0,44.6,32,29.86,10.0,Calm,Calm,-,N/A,,Scattered Clouds,0,2013-06-12 16:50:00
1:50 PM,75.2,48.2,38,29.85,10.0,NNE,13.8,-,N/A,,Scattered Clouds,20,2013-06-12 17:50:00
2:50 PM,75.2,48.2,38,29.85,10.0,ENE,13.8,-,N/A,,Scattered Clouds,60,2013-06-12 18:50:00
3:55 PM,75.2,46.4,36,29.85,10.0,NNE,15.0,-,N/A,,Scattered Clouds,30,2013-06-12 19:55:00
4:50 PM,75.2,46.4,36,29.85,10.0,NE,16.1,-,N/A,,Scattered Clouds,40,2013-06-12 20:50:00
5:50 PM,73.4,46.4,38,29.85,10.0,ENE,11.5,18.4,N/A,,Mostly Cloudy,60,2013-06-12 21:50:00
6:50 PM,71.6,48.2,43,29.83,10.0,NNE,6.9,-,N/A,,Scattered Clouds,30,2013-06-12 22:50:00
7:50 PM,68.0,48.2,49,29.82,10.0,NE,9.2,-,N/A,,Scattered Clouds,50,2013-06-12 23:50:00
8:50 PM,66.2,46.4,49,29.83,10.0,Calm,Calm,-,N/A,,Scattered Clouds,0,2013-06-13 00:50:00
9:45 PM,64.4,48.2,56,29.82,10.0,Calm,Calm,-,N/A,,Scattered Clouds,0,2013-06-13 01:45:00
10:22 PM,60.8,48.2,63,29.85,10.0,Calm,Calm,-,N/A,,Clear,0,2013-06-13 02:22:00
10:40 PM,59.0,48.2,67,29.86,10.0,Calm,Calm,-,N/A,,Clear,0,2013-06-13 02:40:00
11:01 PM,57.2,48.2,72,29.86,10.0,Calm,Calm,-,N/A,,Clear,0,2013-06-13 03:01:00
11:20 PM,57.2,48.2,72,29.86,10.0,Calm,Calm,-,N/A,,Clear,0,2013-06-13 03:20:00
11:40 PM,53.6,48.2,82,29.84,10.0,Calm,Calm,-,N/A,,Clear,0,2013-06-13 03:40:00